Location: Freiburg+im+Breisgau
(48.0359°N, 7.8195°E)
Time: 16:40:05
(UTC+01:00)

Envisat - Visible Passes

Search period start: 23 January 2018 00:00
Search period end: 02 February 2018 00:00
Orbit: 764 x 766 km, 98.2° (Epoch: 23 January)

Date Brightness Start Highest point End Pass type
(mag) Time Alt. Az. Time Alt. Az. Time Alt. Az.
23 Jan 4.8 17:56:53 10° ENE 17:57:50 10° NE 17:58:47 10° NE visible
23 Jan 2.9 19:35:58 59° ENE 19:35:58 59° ENE 19:40:51 10° N visible
23 Jan 5.4 21:16:09 19° WNW 21:16:09 19° WNW 21:19:01 10° NW visible
24 Jan 3.7 18:58:32 29° E 18:59:20 30° ENE 19:03:44 10° N visible
24 Jan 4.2 20:38:43 40° W 20:38:43 40° W 20:43:02 10° NNW visible
25 Jan 4.4 18:21:06 14° E 18:23:01 17° ENE 18:26:08 10° NNE visible
25 Jan 2.9 20:01:17 83° SW 20:01:23 84° WSW 20:06:30 10° NNW visible
25 Jan 5.9 21:41:28 12° W 21:41:28 12° W 21:43:07 10° WNW visible
26 Jan 3.1 19:23:50 43° E 19:24:44 48° ENE 19:29:38 10° N visible
26 Jan 5.0 21:04:01 25° W 21:04:01 25° W 21:08:11 10° NW visible
27 Jan 6.1 07:27:02 10° ENE 07:29:11 13° E 07:31:20 10° ESE visible
27 Jan 3.9 18:46:24 20° E 18:48:18 25° ENE 18:52:25 10° N visible
27 Jan 3.7 20:26:34 49° WSW 20:27:02 51° W 20:32:00 10° NNW visible
28 Jan 4.6 18:09:33 10° E 18:12:02 14° NE 18:14:32 10° NNE visible
28 Jan 2.8 19:49:07 54° SSE 19:50:15 80° ENE 19:55:22 10° NNW visible
28 Jan 5.6 21:29:18 15° W 21:29:54 15° W 21:32:48 10° NW visible
29 Jan 3.4 19:11:38 28° ESE 19:13:40 40° ENE 19:18:24 10° N visible
29 Jan 4.6 20:51:49 29° WSW 20:52:47 31° W 20:57:17 10° NNW visible
30 Jan 4.2 18:34:10 13° ESE 18:37:17 21° ENE 18:41:03 10° NNE visible
30 Jan 3.3 20:14:22 43° SSW 20:15:52 63° WSW 20:20:56 10° NNW visible
31 Jan 4.8 17:59:31 10° ENE 18:01:05 11° NE 18:02:39 10° NE visible
31 Jan 2.9 19:36:52 32° SE 19:39:09 65° ENE 19:44:12 10° N visible
31 Jan 5.4 21:17:03 16° WSW 21:18:38 19° W 21:22:11 10° NW visible
01 Feb 3.6 18:59:22 17° ESE 19:02:37 33° ENE 19:07:08 10° N visible
01 Feb 4.3 20:39:34 27° SW 20:41:34 38° W 20:46:18 10° NNW visible
